Year,Month,Day,Hour,Minute,Value (Times are PST for temperature in C)
2018,05,28,00,00,13.20
2018,05,28,00,01,13.20
2018,05,28,00,02,13.20
2018,05,28,00,03,13.10
2018,05,28,00,04,13.10
2018,05,28,00,05,13.10
2018,05,28,00,06,13.10
2018,05,28,00,07,13.10
2018,05,28,00,08,13.00
2018,05,28,00,09,13.00
2018,05,28,00,10,13.00
2018,05,28,00,11,13.00
2018,05,28,00,12,13.10
2018,05,28,00,13,13.10
2018,05,28,00,14,13.10
2018,05,28,00,15,13.10
2018,05,28,00,16,13.10
2018,05,28,00,17,13.10
2018,05,28,00,18,13.20
2018,05,28,00,19,13.20
2018,05,28,00,20,13.20
2018,05,28,00,21,13.20
2018,05,28,00,22,13.20
2018,05,28,00,23,13.20
2018,05,28,00,24,13.30
2018,05,28,00,25,13.30
2018,05,28,00,26,13.20
2018,05,28,00,27,13.30
2018,05,28,00,28,13.20
2018,05,28,00,29,13.20
2018,05,28,00,30,13.20
2018,05,28,00,31,13.20
2018,05,28,00,32,13.20
2018,05,28,00,33,13.20
2018,05,28,00,34,13.20
2018,05,28,00,35,13.20
2018,05,28,00,36,13.10
2018,05,28,00,37,13.10
2018,05,28,00,38,13.10
2018,05,28,00,39,13.00
2018,05,28,00,40,13.00
2018,05,28,00,41,13.00
2018,05,28,00,42,12.90
2018,05,28,00,43,12.90
2018,05,28,00,44,12.90
2018,05,28,00,45,12.90
2018,05,28,00,46,12.80
2018,05,28,00,47,12.80
2018,05,28,00,48,12.80
2018,05,28,00,49,12.80
2018,05,28,00,50,12.80
2018,05,28,00,51,12.80
2018,05,28,00,52,12.70
2018,05,28,00,53,12.70
2018,05,28,00,54,12.70
2018,05,28,00,55,12.70
2018,05,28,00,56,12.70
2018,05,28,00,57,12.70
2018,05,28,00,58,12.70
2018,05,28,00,59,12.80
2018,05,28,01,00,12.80
2018,05,28,01,01,12.80
2018,05,28,01,02,12.90
2018,05,28,01,03,12.90
2018,05,28,01,04,12.90
2018,05,28,01,05,12.90
2018,05,28,01,06,12.90
2018,05,28,01,07,13.00
2018,05,28,01,08,13.00
2018,05,28,01,09,12.90
2018,05,28,01,10,12.90
2018,05,28,01,11,12.90
2018,05,28,01,12,12.90
2018,05,28,01,13,12.90
2018,05,28,01,14,12.90
2018,05,28,01,15,12.80
2018,05,28,01,16,12.80
2018,05,28,01,17,12.80
2018,05,28,01,18,12.80
2018,05,28,01,19,12.70
2018,05,28,01,20,12.70
2018,05,28,01,21,12.70
2018,05,28,01,22,12.60
2018,05,28,01,23,12.60
2018,05,28,01,24,12.60
2018,05,28,01,25,12.60
2018,05,28,01,26,12.50
2018,05,28,01,27,12.50
2018,05,28,01,28,12.50
2018,05,28,01,29,12.50
2018,05,28,01,30,12.40
2018,05,28,01,31,12.40
2018,05,28,01,32,12.40
2018,05,28,01,33,12.40
2018,05,28,01,34,12.40
2018,05,28,01,35,12.40
2018,05,28,01,36,12.30
2018,05,28,01,37,12.30
2018,05,28,01,38,12.30
2018,05,28,01,39,12.30
2018,05,28,01,40,12.30
2018,05,28,01,41,12.30
2018,05,28,01,42,12.30
2018,05,28,01,43,12.30
2018,05,28,01,44,12.30
2018,05,28,01,45,12.20
2018,05,28,01,46,12.20
2018,05,28,01,47,12.20
2018,05,28,01,48,12.20
2018,05,28,01,49,12.20
2018,05,28,01,50,12.20
2018,05,28,01,51,12.10
2018,05,28,01,52,12.10
2018,05,28,01,53,12.10
2018,05,28,01,54,12.10
2018,05,28,01,55,12.10
2018,05,28,01,56,12.10
2018,05,28,01,57,12.10
2018,05,28,01,58,12.10
2018,05,28,01,59,12.10
2018,05,28,02,00,12.10
2018,05,28,02,01,12.10
2018,05,28,02,02,12.10
2018,05,28,02,03,12.10
2018,05,28,02,04,12.10
2018,05,28,02,05,12.10
2018,05,28,02,06,12.10
2018,05,28,02,07,12.10
2018,05,28,02,08,12.10
2018,05,28,02,09,12.10
2018,05,28,02,10,12.10
2018,05,28,02,11,12.10
2018,05,28,02,12,12.10
2018,05,28,02,13,12.10
2018,05,28,02,14,12.10
2018,05,28,02,15,12.00
2018,05,28,02,16,12.00
2018,05,28,02,17,12.00
2018,05,28,02,18,12.00
2018,05,28,02,19,12.00
2018,05,28,02,20,12.00
2018,05,28,02,21,12.00
2018,05,28,02,22,12.00
2018,05,28,02,23,12.00
2018,05,28,02,24,12.00
2018,05,28,02,25,12.00
2018,05,28,02,26,12.00
2018,05,28,02,27,12.00
2018,05,28,02,28,12.00
2018,05,28,02,29,12.00
2018,05,28,02,30,12.00
2018,05,28,02,31,12.00
2018,05,28,02,32,12.00
2018,05,28,02,33,12.00
2018,05,28,02,34,12.00
2018,05,28,02,35,12.00
2018,05,28,02,36,12.10
2018,05,28,02,37,12.10
2018,05,28,02,38,12.10
2018,05,28,02,39,12.10
2018,05,28,02,40,12.20
2018,05,28,02,41,12.20
2018,05,28,02,42,12.20
2018,05,28,02,43,12.20
2018,05,28,02,44,12.20
2018,05,28,02,45,12.20
2018,05,28,02,46,12.20
2018,05,28,02,47,12.20
2018,05,28,02,48,12.20
2018,05,28,02,49,12.30
2018,05,28,02,50,12.30
2018,05,28,02,51,12.30
2018,05,28,02,52,12.30
2018,05,28,02,53,12.30
2018,05,28,02,54,12.30
2018,05,28,02,55,12.30
2018,05,28,02,56,12.30
2018,05,28,02,57,12.30
2018,05,28,02,58,12.30
2018,05,28,02,59,12.30
2018,05,28,03,00,12.30
2018,05,28,03,01,12.30
2018,05,28,03,02,12.20
2018,05,28,03,03,12.20
2018,05,28,03,04,12.20
2018,05,28,03,05,12.20
2018,05,28,03,06,12.20
2018,05,28,03,07,12.20
2018,05,28,03,08,12.20
2018,05,28,03,09,12.20
2018,05,28,03,10,12.20
2018,05,28,03,11,12.20
2018,05,28,03,12,12.20
2018,05,28,03,13,12.20
2018,05,28,03,14,12.20
2018,05,28,03,15,12.20
2018,05,28,03,16,12.20
2018,05,28,03,17,12.30
2018,05,28,03,18,12.30
2018,05,28,03,19,12.30
2018,05,28,03,20,12.40
2018,05,28,03,21,12.40
2018,05,28,03,22,12.40
2018,05,28,03,23,12.40
2018,05,28,03,24,12.40
2018,05,28,03,25,12.40
2018,05,28,03,26,12.40
2018,05,28,03,27,12.40
2018,05,28,03,28,12.40
2018,05,28,03,29,12.40
2018,05,28,03,30,12.40
2018,05,28,03,31,12.50
2018,05,28,03,32,12.50
2018,05,28,03,33,12.50
2018,05,28,03,34,12.50
2018,05,28,03,35,12.50
2018,05,28,03,36,12.50
2018,05,28,03,37,12.50
2018,05,28,03,38,12.40
2018,05,28,03,39,12.40
2018,05,28,03,40,12.40
2018,05,28,03,41,12.40
2018,05,28,03,42,12.40
2018,05,28,03,43,12.40
2018,05,28,03,44,12.40
2018,05,28,03,45,12.40
2018,05,28,03,46,12.50
2018,05,28,03,47,12.50
2018,05,28,03,48,12.50
2018,05,28,03,49,12.60
2018,05,28,03,50,12.60
2018,05,28,03,51,12.60
2018,05,28,03,52,12.60
2018,05,28,03,53,12.50
2018,05,28,03,54,12.50
2018,05,28,03,55,12.50
2018,05,28,03,56,12.40
2018,05,28,03,57,12.40
2018,05,28,03,58,12.40
2018,05,28,03,59,12.40
2018,05,28,04,00,12.30
2018,05,28,04,01,12.30
2018,05,28,04,02,12.30
2018,05,28,04,03,12.30
2018,05,28,04,04,12.20
2018,05,28,04,05,12.20
2018,05,28,04,06,12.20
2018,05,28,04,07,12.20
2018,05,28,04,08,12.20
2018,05,28,04,09,12.20
2018,05,28,04,10,12.20
2018,05,28,04,11,12.20
2018,05,28,04,12,12.30
2018,05,28,04,13,12.30
2018,05,28,04,14,12.30
2018,05,28,04,15,12.30
2018,05,28,04,16,12.40
2018,05,28,04,17,12.40
2018,05,28,04,18,12.40
2018,05,28,04,19,12.50
2018,05,28,04,20,12.50
2018,05,28,04,21,12.60
2018,05,28,04,22,12.60
2018,05,28,04,23,12.60
2018,05,28,04,24,12.60
2018,05,28,04,25,12.60
2018,05,28,04,26,12.60
2018,05,28,04,27,12.70
2018,05,28,04,28,12.70
2018,05,28,04,29,12.70
2018,05,28,04,30,12.70
2018,05,28,04,31,12.70
2018,05,28,04,32,12.70
2018,05,28,04,33,12.70
2018,05,28,04,34,12.70
2018,05,28,04,35,12.70
2018,05,28,04,36,12.70
2018,05,28,04,37,12.80
2018,05,28,04,38,12.80
2018,05,28,04,39,12.80
2018,05,28,04,40,12.80
2018,05,28,04,41,12.80
2018,05,28,04,42,12.80
2018,05,28,04,43,12.80
2018,05,28,04,44,12.80
2018,05,28,04,45,12.80
2018,05,28,04,46,12.70
2018,05,28,04,47,12.70
2018,05,28,04,48,12.70
2018,05,28,04,49,12.70
2018,05,28,04,50,12.70
2018,05,28,04,51,12.70
2018,05,28,04,52,12.70
2018,05,28,04,53,12.70
2018,05,28,04,54,12.70
2018,05,28,04,55,12.70
2018,05,28,04,56,12.70
2018,05,28,04,57,12.70
2018,05,28,04,58,12.70
2018,05,28,04,59,12.70
2018,05,28,05,00,12.80
2018,05,28,05,01,12.80
2018,05,28,05,02,12.80
2018,05,28,05,03,12.80
2018,05,28,05,04,12.80
2018,05,28,05,05,12.80
2018,05,28,05,06,12.80
2018,05,28,05,07,12.80
2018,05,28,05,08,12.80
2018,05,28,05,09,12.80
2018,05,28,05,10,12.80
2018,05,28,05,11,12.80
2018,05,28,05,12,12.80
2018,05,28,05,13,12.80
2018,05,28,05,14,12.80
2018,05,28,05,15,12.70
2018,05,28,05,16,12.70
2018,05,28,05,17,12.70
2018,05,28,05,18,12.80
2018,05,28,05,19,12.80
2018,05,28,05,20,12.80
2018,05,28,05,21,12.80
2018,05,28,05,22,12.80
2018,05,28,05,23,12.80
2018,05,28,05,24,12.80
2018,05,28,05,25,12.80
2018,05,28,05,26,12.80
2018,05,28,05,27,12.80
2018,05,28,05,28,12.80
2018,05,28,05,29,12.80
2018,05,28,05,30,12.90
2018,05,28,05,31,12.90
2018,05,28,05,32,12.90
2018,05,28,05,33,12.90
2018,05,28,05,34,12.90
2018,05,28,05,35,12.90
2018,05,28,05,36,12.90
2018,05,28,05,37,12.90
2018,05,28,05,38,12.90
2018,05,28,05,39,12.90
2018,05,28,05,40,12.90
2018,05,28,05,41,12.90
2018,05,28,05,42,12.90
2018,05,28,05,43,12.90
2018,05,28,05,44,12.90
2018,05,28,05,45,12.90
2018,05,28,05,46,12.90
2018,05,28,05,47,12.90
2018,05,28,05,48,12.90
2018,05,28,05,49,12.90
2018,05,28,05,50,12.90
2018,05,28,05,51,12.90
2018,05,28,05,52,12.90
2018,05,28,05,53,12.90
2018,05,28,05,54,12.90
2018,05,28,05,55,12.90
2018,05,28,05,56,12.90
2018,05,28,05,57,12.90
2018,05,28,05,58,12.90
2018,05,28,05,59,12.90
2018,05,28,06,00,12.90
2018,05,28,06,01,12.90
2018,05,28,06,02,12.90
2018,05,28,06,03,12.90
2018,05,28,06,04,12.90
2018,05,28,06,05,12.90
2018,05,28,06,06,12.90
2018,05,28,06,07,12.90
2018,05,28,06,08,12.90
2018,05,28,06,09,13.00
2018,05,28,06,10,13.00
2018,05,28,06,11,13.00
2018,05,28,06,12,13.00
2018,05,28,06,13,13.00
2018,05,28,06,14,13.00
2018,05,28,06,15,13.00
2018,05,28,06,16,13.00
2018,05,28,06,17,13.00
2018,05,28,06,18,13.00
2018,05,28,06,19,13.10
2018,05,28,06,20,13.10
2018,05,28,06,21,13.10
2018,05,28,06,22,13.10
2018,05,28,06,23,13.10
2018,05,28,06,24,13.10
2018,05,28,06,25,13.10
2018,05,28,06,26,13.10
2018,05,28,06,27,13.10
2018,05,28,06,28,13.10
2018,05,28,06,29,13.10
2018,05,28,06,30,13.10
2018,05,28,06,31,13.10
2018,05,28,06,32,13.20
2018,05,28,06,33,13.20
2018,05,28,06,34,13.20
2018,05,28,06,35,13.20
2018,05,28,06,36,13.20
2018,05,28,06,37,13.20
2018,05,28,06,38,13.20
2018,05,28,06,39,13.20
2018,05,28,06,40,13.30
2018,05,28,06,41,13.30
2018,05,28,06,42,13.30
2018,05,28,06,43,13.30
2018,05,28,06,44,13.30
2018,05,28,06,45,13.30
2018,05,28,06,46,13.30
2018,05,28,06,47,13.40
2018,05,28,06,48,13.40
2018,05,28,06,49,13.40
2018,05,28,06,50,13.40
2018,05,28,06,51,13.40
2018,05,28,06,52,13.40
2018,05,28,06,53,13.40
2018,05,28,06,54,13.50
2018,05,28,06,55,13.50
2018,05,28,06,56,13.50
2018,05,28,06,57,13.50
2018,05,28,06,58,13.50
2018,05,28,06,59,13.60
2018,05,28,07,00,13.60
2018,05,28,07,01,13.60
2018,05,28,07,02,13.60
2018,05,28,07,03,13.60
2018,05,28,07,04,13.60
2018,05,28,07,05,13.60
2018,05,28,07,06,13.60
2018,05,28,07,07,13.60
2018,05,28,07,08,13.70
2018,05,28,07,09,13.70
2018,05,28,07,10,13.70
2018,05,28,07,11,13.70
2018,05,28,07,12,13.70
2018,05,28,07,13,13.70
2018,05,28,07,14,13.80
2018,05,28,07,15,13.80
2018,05,28,07,16,13.80
2018,05,28,07,17,13.80
2018,05,28,07,18,13.80
2018,05,28,07,19,13.80
2018,05,28,07,20,13.90
2018,05,28,07,21,13.90
2018,05,28,07,22,13.90
2018,05,28,07,23,13.90
2018,05,28,07,24,14.00
2018,05,28,07,25,14.00
2018,05,28,07,26,14.00
2018,05,28,07,27,14.00
2018,05,28,07,28,14.10
2018,05,28,07,29,14.10
2018,05,28,07,30,14.10
2018,05,28,07,31,14.10
2018,05,28,07,32,14.10
2018,05,28,07,33,14.10
2018,05,28,07,34,14.10
2018,05,28,07,35,14.10
2018,05,28,07,36,14.20
2018,05,28,07,37,14.20
2018,05,28,07,38,14.20
2018,05,28,07,39,14.20
2018,05,28,07,40,14.20
2018,05,28,07,41,14.20
2018,05,28,07,42,14.20
2018,05,28,07,43,14.20
2018,05,28,07,44,14.30
2018,05,28,07,45,14.30
2018,05,28,07,46,14.30
2018,05,28,07,47,14.30
2018,05,28,07,48,14.30
2018,05,28,07,49,14.30
2018,05,28,07,50,14.40
2018,05,28,07,51,14.40
2018,05,28,07,52,14.40
2018,05,28,07,53,14.30
2018,05,28,07,54,14.30
2018,05,28,07,55,14.40
2018,05,28,07,56,14.40
2018,05,28,07,57,14.40
2018,05,28,07,58,14.40
2018,05,28,07,59,14.50
2018,05,28,08,00,14.60
2018,05,28,08,01,14.60
2018,05,28,08,02,14.60
2018,05,28,08,03,14.60
2018,05,28,08,04,14.60
2018,05,28,08,05,14.60
2018,05,28,08,06,14.60
2018,05,28,08,07,14.60
2018,05,28,08,08,14.70
2018,05,28,08,09,14.70
2018,05,28,08,10,14.70
2018,05,28,08,11,14.70
2018,05,28,08,12,14.70
2018,05,28,08,13,14.70
2018,05,28,08,14,14.70
2018,05,28,08,15,14.70
2018,05,28,08,16,14.70
2018,05,28,08,17,14.70
2018,05,28,08,18,14.70
2018,05,28,08,19,14.70
2018,05,28,08,20,14.70
2018,05,28,08,21,14.60
2018,05,28,08,22,14.60
2018,05,28,08,23,14.70
2018,05,28,08,24,14.70
2018,05,28,08,25,14.70
2018,05,28,08,26,14.70
2018,05,28,08,27,14.70
2018,05,28,08,28,14.80
2018,05,28,08,29,14.80
2018,05,28,08,30,14.80
2018,05,28,08,31,14.80
2018,05,28,08,32,14.80
2018,05,28,08,33,14.90
2018,05,28,08,34,14.90
2018,05,28,08,35,14.90
2018,05,28,08,36,15.00
2018,05,28,08,37,15.00
2018,05,28,08,38,15.10
2018,05,28,08,39,15.00
2018,05,28,08,40,15.00
2018,05,28,08,41,15.00
2018,05,28,08,42,15.00
2018,05,28,08,43,15.00
2018,05,28,08,44,15.00
2018,05,28,08,45,15.00
2018,05,28,08,46,15.00
2018,05,28,08,47,15.00
2018,05,28,08,48,15.00
2018,05,28,08,49,15.10
2018,05,28,08,50,15.10
2018,05,28,08,51,15.10
2018,05,28,08,52,15.20
2018,05,28,08,53,15.20
2018,05,28,08,54,15.20
2018,05,28,08,55,15.20
2018,05,28,08,56,15.20
2018,05,28,08,57,15.20
2018,05,28,08,58,15.20
2018,05,28,08,59,15.20
2018,05,28,09,00,15.20
2018,05,28,09,01,15.20
2018,05,28,09,02,15.30
2018,05,28,09,03,15.30
2018,05,28,09,04,15.40
2018,05,28,09,05,15.40
2018,05,28,09,06,15.40
2018,05,28,09,07,15.40
2018,05,28,09,08,15.40
2018,05,28,09,09,15.50
2018,05,28,09,10,15.50
2018,05,28,09,11,15.50
2018,05,28,09,12,15.50
2018,05,28,09,13,15.60
2018,05,28,09,14,15.50
2018,05,28,09,15,15.50
2018,05,28,09,16,15.50
2018,05,28,09,17,15.60
2018,05,28,09,18,15.70
2018,05,28,09,19,15.70
2018,05,28,09,20,15.80
2018,05,28,09,21,15.80
2018,05,28,09,22,15.80
2018,05,28,09,23,15.90
2018,05,28,09,24,15.90
2018,05,28,09,25,15.80
2018,05,28,09,26,15.80
2018,05,28,09,27,15.90
2018,05,28,09,28,15.90
2018,05,28,09,29,16.00
2018,05,28,09,30,16.00
2018,05,28,09,31,16.00
2018,05,28,09,32,16.00
2018,05,28,09,33,16.00
2018,05,28,09,34,16.00
2018,05,28,09,35,16.10
2018,05,28,09,36,16.10
2018,05,28,09,37,16.00
2018,05,28,09,38,16.00
2018,05,28,09,39,16.00
2018,05,28,09,40,16.00
2018,05,28,09,41,15.90
2018,05,28,09,42,15.90
2018,05,28,09,43,15.80
2018,05,28,09,44,15.80
2018,05,28,09,45,15.80
2018,05,28,09,46,15.80
2018,05,28,09,47,15.80
2018,05,28,09,48,15.80
2018,05,28,09,49,15.80
2018,05,28,09,50,15.90
2018,05,28,09,51,15.90
2018,05,28,09,52,16.00
2018,05,28,09,53,16.00
2018,05,28,09,54,16.10
2018,05,28,09,55,16.10
2018,05,28,09,56,16.10
2018,05,28,09,57,16.10
2018,05,28,09,58,16.10
2018,05,28,09,59,16.10
2018,05,28,10,00,16.10
2018,05,28,10,01,16.10
2018,05,28,10,02,16.10
2018,05,28,10,03,16.10
2018,05,28,10,04,16.20
2018,05,28,10,05,16.30
2018,05,28,10,06,16.30
2018,05,28,10,07,16.40
2018,05,28,10,08,16.50
2018,05,28,10,09,16.50
2018,05,28,10,10,16.50
2018,05,28,10,11,16.50
2018,05,28,10,12,16.50
2018,05,28,10,13,16.60
2018,05,28,10,14,16.60
2018,05,28,10,15,16.70
2018,05,28,10,16,16.70
2018,05,28,10,17,16.70
2018,05,28,10,18,16.70
2018,05,28,10,19,16.70
2018,05,28,10,20,16.60
2018,05,28,10,21,16.60
2018,05,28,10,22,16.60
2018,05,28,10,23,16.50
2018,05,28,10,24,16.50
2018,05,28,10,25,16.50
2018,05,28,10,26,16.50
2018,05,28,10,27,16.50
2018,05,28,10,28,16.50
2018,05,28,10,29,16.50
2018,05,28,10,30,16.40
2018,05,28,10,31,16.40
2018,05,28,10,32,16.40
2018,05,28,10,33,16.40
2018,05,28,10,34,16.40
2018,05,28,10,35,16.50
2018,05,28,10,36,16.50
2018,05,28,10,37,16.60
2018,05,28,10,38,16.70
2018,05,28,10,39,16.70
2018,05,28,10,40,16.80
2018,05,28,10,41,16.80
2018,05,28,10,42,16.80
2018,05,28,10,43,16.80
2018,05,28,10,44,16.80
2018,05,28,10,45,16.80
2018,05,28,10,46,16.80
2018,05,28,10,47,16.80
2018,05,28,10,48,16.90
2018,05,28,10,49,16.80
2018,05,28,10,50,16.80
2018,05,28,10,51,16.70
2018,05,28,10,52,16.80
2018,05,28,10,53,16.80
2018,05,28,10,54,16.80
2018,05,28,10,55,16.90
2018,05,28,10,56,17.00
2018,05,28,10,57,17.00
2018,05,28,10,58,17.00
2018,05,28,10,59,17.00
2018,05,28,11,00,17.10
2018,05,28,11,01,17.10
2018,05,28,11,02,17.10
2018,05,28,11,03,17.10
2018,05,28,11,04,17.10
2018,05,28,11,05,17.10
2018,05,28,11,06,17.10
2018,05,28,11,07,17.10
2018,05,28,11,08,17.10
2018,05,28,11,09,17.00
2018,05,28,11,10,17.00
2018,05,28,11,11,17.00
2018,05,28,11,12,17.10
2018,05,28,11,13,17.10
2018,05,28,11,14,17.20
2018,05,28,11,15,17.20
2018,05,28,11,16,17.20
2018,05,28,11,17,17.30
2018,05,28,11,18,17.30
2018,05,28,11,19,17.30
2018,05,28,11,20,17.30
2018,05,28,11,21,17.30
2018,05,28,11,22,17.30
2018,05,28,11,23,17.40
2018,05,28,11,24,17.40
2018,05,28,11,25,17.40
2018,05,28,11,26,17.30
2018,05,28,11,27,17.40
2018,05,28,11,28,17.40
2018,05,28,11,29,17.40
2018,05,28,11,30,17.50
2018,05,28,11,31,17.50
2018,05,28,11,32,17.60
2018,05,28,11,33,17.60
2018,05,28,11,34,17.60
2018,05,28,11,35,17.70
2018,05,28,11,36,17.70
2018,05,28,11,37,17.70
2018,05,28,11,38,17.80
2018,05,28,11,39,17.90
2018,05,28,11,40,17.90
2018,05,28,11,41,17.90
2018,05,28,11,42,18.00
2018,05,28,11,43,18.00
2018,05,28,11,44,18.10
2018,05,28,11,45,18.20
2018,05,28,11,46,18.20
2018,05,28,11,47,18.20
2018,05,28,11,48,18.30
2018,05,28,11,49,18.30
2018,05,28,11,50,18.30
2018,05,28,11,51,18.30
2018,05,28,11,52,18.30
2018,05,28,11,53,18.30
2018,05,28,11,54,18.30
2018,05,28,11,55,18.40
2018,05,28,11,56,18.40
2018,05,28,11,57,18.40
2018,05,28,11,58,18.50
2018,05,28,11,59,18.50
2018,05,28,12,00,18.40
2018,05,28,12,01,18.40
2018,05,28,12,02,18.40
2018,05,28,12,03,18.50
2018,05,28,12,04,18.60
2018,05,28,12,05,18.60
2018,05,28,12,06,18.70
2018,05,28,12,07,18.70
2018,05,28,12,08,18.80
2018,05,28,12,09,18.80
2018,05,28,12,10,18.80
2018,05,28,12,11,18.80
2018,05,28,12,12,18.90
2018,05,28,12,13,18.90
2018,05,28,12,14,18.90
2018,05,28,12,15,18.90
2018,05,28,12,16,19.00
2018,05,28,12,17,19.10
2018,05,28,12,18,19.20
2018,05,28,12,19,19.20
2018,05,28,12,20,19.20
2018,05,28,12,21,19.10
2018,05,28,12,22,19.10
2018,05,28,12,23,19.00
2018,05,28,12,24,19.00
2018,05,28,12,25,18.90
2018,05,28,12,26,18.80
2018,05,28,12,27,18.70
2018,05,28,12,28,18.60
2018,05,28,12,29,18.50
2018,05,28,12,30,18.50
2018,05,28,12,31,18.50
2018,05,28,12,32,18.50
2018,05,28,12,33,18.50
2018,05,28,12,34,18.50
2018,05,28,12,35,18.50
2018,05,28,12,36,18.40
2018,05,28,12,37,18.40
2018,05,28,12,38,18.40
2018,05,28,12,39,18.40
2018,05,28,12,40,18.50
2018,05,28,12,41,18.50
2018,05,28,12,42,18.50
2018,05,28,12,43,18.40
2018,05,28,12,44,18.40
2018,05,28,12,45,18.40
2018,05,28,12,46,18.40
2018,05,28,12,47,18.50
2018,05,28,12,48,18.50
2018,05,28,12,49,18.60
2018,05,28,12,50,18.60
2018,05,28,12,51,18.60
2018,05,28,12,52,18.70
2018,05,28,12,53,18.70
2018,05,28,12,54,18.70
2018,05,28,12,55,18.70
2018,05,28,12,56,18.70
2018,05,28,12,57,18.70
2018,05,28,12,58,18.70
2018,05,28,12,59,18.60
2018,05,28,13,00,18.60
2018,05,28,13,01,18.60
2018,05,28,13,02,18.70
2018,05,28,13,03,18.80
2018,05,28,13,04,18.80
2018,05,28,13,05,18.90
2018,05,28,13,06,18.90
2018,05,28,13,07,19.00
2018,05,28,13,08,19.00
2018,05,28,13,09,19.10
2018,05,28,13,10,19.00
2018,05,28,13,11,19.10
2018,05,28,13,12,19.10
2018,05,28,13,13,19.10
2018,05,28,13,14,19.10
2018,05,28,13,15,19.00
2018,05,28,13,16,19.00
2018,05,28,13,17,19.00
2018,05,28,13,18,19.00
2018,05,28,13,19,19.00
2018,05,28,13,20,19.10
2018,05,28,13,21,19.20
2018,05,28,13,22,19.20
2018,05,28,13,23,19.20
2018,05,28,13,24,19.20
2018,05,28,13,25,19.30
2018,05,28,13,26,19.30
2018,05,28,13,27,19.30
2018,05,28,13,28,19.30
2018,05,28,13,29,19.40
2018,05,28,13,30,19.40
2018,05,28,13,31,19.40
2018,05,28,13,32,19.30
2018,05,28,13,33,19.30
2018,05,28,13,34,19.40
2018,05,28,13,35,19.40
2018,05,28,13,36,19.50
2018,05,28,13,37,19.40
2018,05,28,13,38,19.30
2018,05,28,13,39,19.30
2018,05,28,13,40,19.30
2018,05,28,13,41,19.30
2018,05,28,13,42,19.30
2018,05,28,13,43,19.30
2018,05,28,13,44,19.30
2018,05,28,13,45,19.40
2018,05,28,13,46,19.40
2018,05,28,13,47,19.30
2018,05,28,13,48,19.20
2018,05,28,13,49,19.20
2018,05,28,13,50,19.20
2018,05,28,13,51,19.30
2018,05,28,13,52,19.30
2018,05,28,13,53,19.40
2018,05,28,13,54,19.40
2018,05,28,13,55,19.40
2018,05,28,13,56,19.40
2018,05,28,13,57,19.30
2018,05,28,13,58,19.30
2018,05,28,13,59,19.30
2018,05,28,14,00,19.30
2018,05,28,14,01,19.30
2018,05,28,14,02,19.20
2018,05,28,14,03,19.10
2018,05,28,14,04,19.10
2018,05,28,14,05,19.20
2018,05,28,14,06,19.30
2018,05,28,14,07,19.30
2018,05,28,14,08,19.30
2018,05,28,14,09,19.30
2018,05,28,14,10,19.30
2018,05,28,14,11,19.30
2018,05,28,14,12,19.30
2018,05,28,14,13,19.30
2018,05,28,14,14,19.30
2018,05,28,14,15,19.30
2018,05,28,14,16,19.40
2018,05,28,14,17,19.40
2018,05,28,14,18,19.60
2018,05,28,14,19,19.70
2018,05,28,14,20,19.80
2018,05,28,14,21,19.80
2018,05,28,14,22,19.70
2018,05,28,14,23,19.60
2018,05,28,14,24,19.60
2018,05,28,14,25,19.60
2018,05,28,14,26,19.70
2018,05,28,14,27,19.70
2018,05,28,14,28,19.80
2018,05,28,14,29,19.90
2018,05,28,14,30,20.00
2018,05,28,14,31,19.90
2018,05,28,14,32,19.80
2018,05,28,14,33,19.80
2018,05,28,14,34,19.70
2018,05,28,14,35,19.80
2018,05,28,14,36,19.80
2018,05,28,14,37,19.70
2018,05,28,14,38,19.60
2018,05,28,14,39,19.60
2018,05,28,14,40,19.70
2018,05,28,14,41,19.70
2018,05,28,14,42,19.80
2018,05,28,14,43,19.80
2018,05,28,14,44,19.80
2018,05,28,14,45,19.80
2018,05,28,14,46,19.80
2018,05,28,14,47,19.70
2018,05,28,14,48,19.60
2018,05,28,14,49,19.50
2018,05,28,14,50,19.50
2018,05,28,14,51,19.50
2018,05,28,14,52,19.60
2018,05,28,14,53,19.60
2018,05,28,14,54,19.50
2018,05,28,14,55,19.50
2018,05,28,14,56,19.40
2018,05,28,14,57,19.30
2018,05,28,14,58,19.30
2018,05,28,14,59,19.30
2018,05,28,15,00,19.30
2018,05,28,15,01,19.20
2018,05,28,15,02,19.10
2018,05,28,15,03,18.90
2018,05,28,15,04,18.90
2018,05,28,15,05,18.90
2018,05,28,15,06,18.90
2018,05,28,15,07,18.90
2018,05,28,15,08,18.90
2018,05,28,15,09,18.90
2018,05,28,15,10,18.90
2018,05,28,15,11,19.00
2018,05,28,15,12,19.10
2018,05,28,15,13,19.10
2018,05,28,15,14,19.00
2018,05,28,15,15,19.00
2018,05,28,15,16,19.10
2018,05,28,15,17,19.10
2018,05,28,15,18,19.10
2018,05,28,15,19,19.00
2018,05,28,15,20,18.90
2018,05,28,15,21,18.90
2018,05,28,15,22,18.90
2018,05,28,15,23,18.80
2018,05,28,15,24,18.70
2018,05,28,15,25,18.70
2018,05,28,15,26,18.70
2018,05,28,15,27,18.70
2018,05,28,15,28,18.80
2018,05,28,15,29,18.90
2018,05,28,15,30,19.00
2018,05,28,15,31,19.00
2018,05,28,15,32,19.00
2018,05,28,15,33,18.90
2018,05,28,15,34,18.80
2018,05,28,15,35,18.90
2018,05,28,15,36,18.80
2018,05,28,15,37,18.80
2018,05,28,15,38,18.70
2018,05,28,15,39,18.70
2018,05,28,15,40,18.70
2018,05,28,15,41,18.80
2018,05,28,15,42,18.90
2018,05,28,15,43,18.90
2018,05,28,15,44,18.90
2018,05,28,15,45,18.90
2018,05,28,15,46,18.90
2018,05,28,15,47,18.90
2018,05,28,15,48,18.90
2018,05,28,15,49,18.90
2018,05,28,15,50,18.80
2018,05,28,15,51,18.80
2018,05,28,15,52,18.80
2018,05,28,15,53,18.70
2018,05,28,15,54,18.70
2018,05,28,15,55,18.60
2018,05,28,15,56,18.60
2018,05,28,15,57,18.60
2018,05,28,15,58,18.60
2018,05,28,15,59,18.60
2018,05,28,16,00,18.70
2018,05,28,16,01,18.70
2018,05,28,16,02,18.70
2018,05,28,16,03,18.70
2018,05,28,16,04,18.60
2018,05,28,16,05,18.60
2018,05,28,16,06,18.70
2018,05,28,16,07,18.60
2018,05,28,16,08,18.60
2018,05,28,16,09,18.70
2018,05,28,16,10,18.70
2018,05,28,16,11,18.80
2018,05,28,16,12,18.80
2018,05,28,16,13,18.80
2018,05,28,16,14,18.80
2018,05,28,16,15,18.80
2018,05,28,16,16,18.80
2018,05,28,16,17,18.90
2018,05,28,16,18,18.80
2018,05,28,16,19,18.80
2018,05,28,16,20,18.90
2018,05,28,16,21,19.00
2018,05,28,16,22,19.00
2018,05,28,16,23,18.90
2018,05,28,16,24,18.80
2018,05,28,16,25,18.80
2018,05,28,16,26,18.80
2018,05,28,16,27,18.90
2018,05,28,16,28,19.00
2018,05,28,16,29,19.10
2018,05,28,16,30,18.90
2018,05,28,16,31,18.70
2018,05,28,16,32,18.70
2018,05,28,16,33,18.80
2018,05,28,16,34,18.90
2018,05,28,16,35,19.00
2018,05,28,16,36,19.00
2018,05,28,16,37,18.90
2018,05,28,16,38,18.80
2018,05,28,16,39,18.90
2018,05,28,16,40,18.80
2018,05,28,16,41,18.80
2018,05,28,16,42,18.80
2018,05,28,16,43,18.80
2018,05,28,16,44,18.80
2018,05,28,16,45,18.80
2018,05,28,16,46,18.70
2018,05,28,16,47,18.80
2018,05,28,16,48,18.60
2018,05,28,16,49,18.60
2018,05,28,16,50,18.60
2018,05,28,16,51,18.60
2018,05,28,16,52,18.60
2018,05,28,16,53,18.70
2018,05,28,16,54,18.70
2018,05,28,16,55,18.70
2018,05,28,16,56,18.60
2018,05,28,16,57,18.60
2018,05,28,16,58,18.60
2018,05,28,16,59,18.50
2018,05,28,17,00,18.50
2018,05,28,17,01,18.40
2018,05,28,17,02,18.40
2018,05,28,17,03,18.30
2018,05,28,17,04,18.30
2018,05,28,17,05,18.40
2018,05,28,17,06,18.50
2018,05,28,17,07,18.60
2018,05,28,17,08,18.50
2018,05,28,17,09,18.40
2018,05,28,17,10,18.20
2018,05,28,17,11,18.20
2018,05,28,17,12,18.10
2018,05,28,17,13,18.10
2018,05,28,17,14,18.10
2018,05,28,17,15,18.10
2018,05,28,17,16,18.10
2018,05,28,17,17,18.10
2018,05,28,17,18,18.10
2018,05,28,17,19,18.10